Theta_e
315 315 316 316 315 316 315 315 318 321 323 322 321 327 333 336 338 335 330 334 333 333 340 342 341 338 336 335 334 332 331 330 329 329 329 330 328 328 330 329 330 330 327 329 330 329 330 329 328 331 333 333 331 331 336 336 336 340 338 334 334 340 341 330 329 341 340 331 332 332 331 332 328 328 328 326 327 324 321 321 324 322 320 326 332 329 336
315 315 315 315 315 316 315 315 318 321 323 321 322 331 335 332 334 335 332 331 330 331 336 339 339 338 335 332 330 330 330 328 328 328 327 329 329 327 328 328 328 327 325 327 328 327 327 327 328 329 332 332 330 328 332 337 339 338 338 338 332 332 336 336 334 338 335 330 330 329 330 329 326 329 328 326 328 324 323 328 327 324 322 325 329 328 335
314 314 315 314 315 315 315 315 317 321 322 321 322 328 334 334 336 337 333 328 328 333 334 331 333 333 335 336 332 330 332 327 326 328 325 326 327 326 326 326 325 325 325 325 327 325 324 324 326 328 328 330 328 326 330 334 337 341 348 349 337 333 340 341 333 328 325 327 328 325 328 328 326 327 324 324 326 319 321 323 319 322 329 330 329 332 341
314 314 314 314 314 315 316 316 317 320 322 321 322 326 333 338 337 336 337 332 330 335 332 328 330 331 336 341 334 329 331 328 325 326 324 323 325 324 324 323 324 324 324 324 325 326 325 326 327 327 327 327 326 325 328 330 335 344 352 352 345 343 344 342 338 331 328 330 334 335 333 325 320 322 323 328 330 322 321 318 314 326 335 331 334 341 347
315 314 314 314 314 314 315 316 316 319 320 320 324 329 333 337 335 334 336 340 340 338 331 327 329 330 335 337 331 326 326 326 324 325 323 323 324 324 322 323 323 323 324 324 327 329 330 329 329 328 326 326 324 325 325 326 333 339 338 342 348 343 334 333 335 332 330 333 334 332 328 321 319 325 330 335 337 328 323 319 320 331 329 327 343 353 350
317 315 314 313 314 314 315 316 317 318 318 319 326 331 333 335 335 331 333 341 345 338 331 328 326 329 333 332 327 325 324 323 323 323 322 323 323 324 323 322 322 323 325 328 330 332 333 333 332 328 326 326 325 325 325 324 328 328 324 332 341 337 329 327 325 325 326 326 327 326 323 323 327 332 335 339 343 341 336 335 340 341 333 334 350 355 351
318 316 314 313 313 314 314 316 318 317 317 318 321 327 329 330 332 332 331 340 346 338 332 331 326 329 341 340 328 323 323 322 322 323 326 326 324 324 324 322 323 324 328 332 333 332 331 330 332 330 327 328 327 326 327 325 323 321 322 327 330 331 332 330 323 323 325 325 326 325 323 326 333 336 337 341 345 346 345 347 349 348 345 346 351 351 351
319 318 315 313 313 313 313 316 319 318 316 316 318 320 325 326 328 331 333 341 347 341 334 333 328 328 340 341 328 322 324 323 322 325 328 327 324 324 324 325 324 323 325 329 328 326 326 328 330 329 325 327 329 326 326 324 322 321 322 324 325 324 328 333 330 325 324 326 328 325 324 331 335 335 336 342 346 346 347 348 349 348 348 348 347 348 350
319 318 317 314 312 313 312 314 319 320 318 319 319 319 320 321 323 327 335 351 357 349 339 334 330 327 331 332 327 324 323 322 325 327 324 323 324 323 324 326 326 324 323 324 323 323 324 325 326 324 324 325 326 326 326 323 321 322 323 324 327 326 327 335 335 326 323 326 326 323 324 332 335 334 335 340 345 347 347 347 347 348 347 347 349 349 350
318 319 318 315 313 313 312 313 318 321 321 322 322 322 321 323 324 325 335 351 353 344 334 327 326 326 325 326 325 323 321 322 326 329 325 321 322 323 324 325 327 327 324 323 322 322 322 323 323 322 322 323 322 322 324 322 320 323 325 325 329 330 327 330 329 324 327 330 325 321 330 340 340 336 334 337 343 346 346 345 345 345 346 349 350 349 349
318 318 319 317 314 312 312 312 315 321 323 322 322 324 322 323 326 327 337 349 341 330 325 322 323 325 323 323 322 321 321 322 323 326 326 322 321 323 324 325 329 331 326 321 321 322 322 322 322 321 321 322 322 322 321 322 321 323 324 324 330 333 329 329 329 324 326 332 327 326 341 347 341 335 334 335 338 342 346 345 343 343 345 346 347 347 347
318 318 318 318 315 312 312 312 314 319 323 323 323 325 324 324 325 329 341 351 339 325 323 321 320 322 324 323 323 323 322 321 323 325 325 324 324 324 323 325 328 329 326 322 323 322 324 324 325 328 327 324 322 321 320 322 323 324 323 321 327 331 329 332 332 325 327 335 333 330 339 345 340 336 338 337 334 336 342 344 342 341 342 344 344 345 347
317 317 318 318 316 313 312 312 313 317 322 325 325 326 324 323 326 331 340 351 344 327 321 321 319 321 325 325 323 324 323 323 328 329 327 328 327 323 323 325 324 324 323 323 323 325 330 336 338 338 335 331 329 326 323 322 323 327 326 323 329 336 337 339 336 331 332 336 333 330 335 341 340 338 339 338 336 336 337 341 343 340 340 344 344 344 345
317 317 318 318 317 314 312 312 313 315 321 325 325 326 324 322 326 329 333 346 350 331 320 322 323 322 325 325 322 324 323 323 328 329 329 329 327 323 324 324 323 323 321 323 330 333 337 343 347 345 343 343 341 336 331 326 326 329 328 327 333 341 344 342 335 331 335 335 333 334 335 335 338 340 337 335 336 335 334 339 343 340 338 342 343 343 345
316 317 317 317 317 315 312 312 313 313 320 325 325 326 324 322 324 326 327 339 352 340 324 323 324 324 326 325 322 324 327 326 327 329 331 330 325 324 325 323 324 324 321 325 334 338 339 340 340 338 338 339 336 334 335 333 330 328 328 328 332 337 341 341 334 333 339 340 337 337 334 334 339 342 337 332 333 333 332 336 342 341 337 340 342 343 344
316 317 317 317 317 315 312 312 313 312 317 323 325 325 325 322 323 324 326 334 344 336 323 321 323 324 327 326 324 325 327 327 329 336 342 336 328 325 324 323 324 325 326 332 336 338 341 339 334 333 332 331 331 333 336 336 331 330 330 328 329 331 336 340 338 335 338 338 335 335 335 338 341 339 334 332 331 330 329 333 340 340 335 337 341 342 344
316 317 317 316 316 315 312 311 313 313 315 320 324 325 325 323 321 323 327 334 339 333 323 322 323 325 327 328 327 328 329 329 332 335 336 333 329 327 325 324 326 326 329 338 342 342 341 336 335 337 332 328 333 335 333 333 332 331 332 332 333 337 340 339 336 334 337 338 336 337 340 342 340 335 334 333 330 332 336 339 341 340 336 337 339 341 343
316 316 317 316 316 315 313 311 312 313 314 317 323 324 323 323 322 322 326 332 339 337 328 323 321 322 323 323 325 327 329 332 336 337 336 336 333 328 324 325 329 328 329 337 343 341 336 331 332 335 331 330 337 335 329 329 330 331 335 336 336 340 342 340 336 336 338 337 334 335 340 341 337 334 334 332 333 341 344 343 343 341 337 338 339 340 342
317 316 317 316 315 314 313 311 311 313 314 316 320 322 321 322 321 322 324 328 334 338 333 325 321 321 319 319 324 328 325 328 337 340 340 341 336 327 326 329 330 330 332 339 342 336 332 332 332 332 332 332 333 332 331 330 330 332 335 337 335 335 337 340 340 339 337 335 335 339 341 338 332 333 335 335 339 345 345 343 343 340 337 339 341 340 340
317 317 316 317 316 315 314 312 311 312 313 315 319 320 321 321 320 321 324 325 330 338 338 328 323 323 321 318 322 326 324 327 336 338 335 336 334 333 335 334 332 333 334 338 340 335 331 334 334 332 331 329 330 336 338 337 335 331 330 335 336 331 332 338 339 338 338 340 343 345 343 337 332 334 337 337 338 341 342 340 339 337 336 337 339 337 337
317 317 316 316 315 315 314 312 311 312 312 314 317 319 320 321 320 320 322 322 328 339 340 329 324 327 326 320 318 320 320 322 328 331 330 331 333 335 334 330 329 332 330 331 336 335 331 333 334 333 332 332 335 338 337 336 338 333 331 339 339 333 334 339 338 335 336 340 344 346 343 337 332 333 334 334 334 335 335 334 334 334 334 335 335 334 335
317 317 316 316 315 315 314 312 311 311 312 314 317 319 320 320 318 318 321 322 326 333 334 327 325 328 328 324 319 318 318 319 322 323 326 332 336 334 332 331 330 329 329 334 340 338 333 332 332 332 333 335 335 335 336 339 339 334 334 341 340 334 335 339 338 335 336 339 344 348 343 336 333 333 332 333 334 334 332 332 333 333 332 332 332 332 333
317 317 316 315 315 315 314 313 311 311 311 313 315 317 320 321 319 317 318 320 324 329 328 325 328 331 329 326 321 318 317 320 321 320 323 332 338 334 330 331 329 328 334 339 338 335 332 331 332 333 334 333 334 337 340 340 336 334 335 338 336 332 333 340 342 338 335 336 340 342 339 334 334 335 334 332 333 333 332 332 333 333 333 332 332 332 332
317 317 316 315 315 315 315 313 312 311 312 313 315 317 320 321 319 317 317 320 326 334 336 332 333 333 327 323 320 319 319 319 320 319 320 327 335 334 332 329 327 330 337 335 330 330 331 331 335 339 336 333 336 339 337 336 336 336 337 337 336 333 335 341 342 337 335 338 340 339 335 333 334 335 334 332 332 332 332 332 332 332 333 333 332 332 332
317 317 316 315 315 315 315 314 312 311 312 315 317 318 320 319 317 317 318 319 322 331 341 344 339 327 320 321 320 318 318 318 318 319 319 321 326 329 328 326 323 325 328 327 328 335 336 332 334 338 336 334 337 337 336 338 337 335 336 339 338 335 336 340 337 335 339 343 341 337 335 335 335 334 332 333 334 333 332 331 330 331 333 332 330 330 332
317 317 316 315 315 315 315 315 313 311 312 315 318 319 320 318 317 316 316 318 321 325 335 344 340 324 318 323 322 319 319 318 317 319 320 319 321 323 323 323 322 321 323 324 327 332 335 334 334 335 334 332 334 334 336 338 336 334 339 343 341 338 339 338 335 337 340 340 337 337 338 339 338 334 331 333 332 331 331 331 330 331 332 330 329 329 330
317 317 316 316 316 315 315 315 313 311 312 315 318 320 320 317 316 316 315 318 323 327 333 341 339 324 318 322 323 320 320 319 318 319 319 318 319 320 320 322 325 326 330 332 332 334 337 337 335 333 331 330 333 336 336 335 334 336 341 343 342 341 339 336 336 338 340 339 337 336 335 336 337 333 331 331 330 330 331 332 331 330 330 330 330 329 328
317 317 316 315 315 315 315 315 314 312 312 313 317 321 321 317 316 315 316 317 320 324 330 334 331 324 322 325 324 321 320 319 318 320 319 318 319 319 319 320 324 327 330 331 333 335 336 333 332 332 332 332 335 338 340 338 336 337 341 342 341 339 337 337 338 340 340 339 338 334 333 335 336 334 332 331 331 332 332 331 330 330 330 330 331 330 329
317 317 317 316 315 316 315 315 314 312 311 314 318 321 320 318 317 315 316 318 319 322 327 330 331 330 329 328 324 322 321 321 320 320 320 319 319 319 318 320 323 326 328 329 332 333 332 331 333 333 330 330 333 335 338 338 335 336 341 342 338 337 336 337 339 339 337 336 336 334 333 335 334 333 333 331 330 331 332 330 330 330 329 329 330 331 331
318 317 317 316 315 316 315 314 313 312 311 315 321 324 325 324 320 315 316 318 319 322 327 333 338 337 332 328 326 323 321 321 322 321 320 319 320 319 318 320 322 325 326 329 330 330 330 332 334 332 330 332 335 335 335 335 334 336 339 339 338 338 337 336 336 335 333 334 335 333 332 334 334 333 332 330 328 329 330 330 330 329 329 329 330 330 329
317 317 317 317 316 316 315 314 312 312 312 314 320 328 332 329 321 316 315 316 318 321 324 330 336 335 331 330 327 322 321 322 322 321 319 319 320 319 319 321 323 325 329 332 331 330 332 334 333 333 333 336 340 339 335 333 335 338 337 336 340 340 336 334 336 335 333 334 335 333 333 334 334 333 331 329 328 328 329 329 328 329 330 330 329 329 328
317 318 318 318 317 316 315 313 312 312 312 313 317 322 326 322 318 317 315 315 318 321 325 332 337 336 334 334 327 321 321 322 322 324 325 323 323 322 321 321 324 326 331 336 336 334 334 336 335 334 334 337 340 340 335 333 338 340 338 338 341 340 335 335 337 337 336 335 332 331 333 333 332 332 332 329 327 327 328 328 328 328 329 329 329 328 329
317 318 318 318 318 316 314 313 313 312 314 315 318 320 321 319 318 318 316 315 317 320 324 331 336 334 333 334 328 322 323 326 327 330 331 329 326 326 326 328 329 327 326 330 335 336 336 336 335 333 335 337 338 337 335 337 341 341 338 337 338 337 335 336 337 336 337 335 330 330 332 332 331 330 328 327 327 328 328 328 328 328 329 328 329 329 329
318 318 319 319 318 316 315 315 315 315 315 318 321 323 321 320 319 317 314 316 320 322 324 329 334 336 336 335 330 326 324 326 330 334 334 331 328 328 331 334 335 333 329 329 333 336 337 337 335 333 335 338 337 337 338 340 339 338 336 336 336 337 336 337 338 338 337 334 331 330 329 328 329 329 328 329 329 328 328 328 329 329 329 329 329 328 329
318 319 319 319 317 316 316 317 318 318 318 319 322 322 320 318 318 316 315 318 323 328 331 330 331 336 339 337 335 329 323 325 331 335 336 333 329 330 334 334 332 333 333 330 331 334 335 337 337 335 335 335 335 337 340 341 339 337 336 335 336 337 335 336 338 338 336 334 333 332 331 330 331 331 331 332 331 329 329 330 329 328 330 330 329 328 328
319 319 318 318 317 317 318 320 321 323 322 321 321 319 318 318 318 316 317 319 322 328 333 332 331 335 338 336 333 327 325 330 335 334 334 334 332 332 335 334 333 336 336 333 334 336 335 335 337 337 335 336 337 342 345 343 340 338 335 333 335 335 333 334 336 336 335 334 334 335 335 334 333 333 332 332 331 330 331 331 330 329 330 329 329 328 328
319 319 318 318 320 322 323 323 323 322 321 320 318 316 317 319 320 319 320 321 321 323 325 328 332 338 338 333 330 327 326 330 332 329 331 333 332 332 335 335 335 338 339 337 339 339 335 334 337 338 339 341 343 344 344 342 341 339 336 335 337 336 334 337 338 336 334 333 333 334 334 333 332 332 331 331 331 331 332 331 330 330 330 329 328 328 328
318 318 318 320 323 326 327 325 322 321 321 319 317 319 321 322 323 325 325 324 324 325 324 326 334 339 335 329 330 328 324 327 331 329 330 331 329 331 338 337 333 333 336 337 337 337 336 338 338 338 341 343 340 339 341 341 341 341 340 339 338 337 337 339 337 333 333 334 333 332 332 332 332 331 329 330 332 332 331 330 329 328 328 328 327 327 328
319 320 320 322 324 326 326 323 320 320 320 318 319 324 326 326 328 332 330 326 326 329 327 329 337 340 332 329 333 330 324 329 335 332 329 330 329 330 334 334 330 331 334 335 333 332 335 339 337 336 340 342 339 338 341 341 339 341 341 337 333 332 334 335 332 330 330 332 332 331 331 331 331 331 330 332 333 331 329 329 329 328 328 327 328 328 329
320 320 321 323 324 323 322 321 319 319 321 321 322 325 326 328 332 335 331 328 329 330 329 332 337 336 327 327 332 329 324 330 335 332 328 330 329 327 329 331 330 330 332 333 333 333 335 338 336 335 339 342 341 340 340 338 338 340 338 332 328 327 328 328 327 326 326 327 327 327 326 326 327 329 330 332 334 332 330 329 329 328 328 328 329 330 329
319 319 320 321 320 319 319 319 319 320 322 325 326 326 328 331 333 329 326 328 329 328 327 330 333 331 328 328 330 328 325 326 331 331 330 331 332 330 331 332 331 332 332 334 336 335 334 334 336 336 338 339 339 339 338 338 339 340 335 329 326 327 326 326 325 325 326 327 326 324 324 325 325 325 327 329 331 331 330 329 329 329 329 329 330 330 329
317 317 317 318 317 317 318 320 322 324 325 326 326 327 329 330 329 328 329 330 329 326 326 328 329 331 330 326 328 330 328 324 328 333 333 332 332 332 332 332 331 331 333 335 335 333 332 333 334 337 339 339 338 339 339 338 339 340 335 329 327 326 326 325 326 325 325 326 326 324 324 326 325 324 326 328 328 329 329 329 328 328 329 330 330 330 329
317 316 316 317 318 319 322 325 326 327 328 328 327 327 327 326 327 329 330 329 330 330 329 327 329 331 329 324 325 329 325 324 330 336 334 331 330 330 329 330 330 329 331 332 330 328 331 334 336 338 339 338 338 339 339 337 337 339 335 328 326 326 326 325 325 325 325 325 326 325 325 325 325 325 326 328 328 329 329 328 328 329 330 331 331 330 330
317 317 317 320 322 323 326 329 328 326 328 328 326 326 328 329 330 331 328 328 330 331 327 326 329 330 329 326 326 327 326 326 330 333 331 330 329 328 327 329 331 330 330 330 329 329 333 338 338 338 337 337 338 339 339 338 339 340 336 329 326 326 326 325 325 325 325 325 325 325 325 325 325 326 327 327 328 329 328 328 328 330 330 330 330 330 329
319 321 321 323 325 324 323 325 326 327 329 328 326 327 329 330 330 329 327 328 329 327 326 331 334 331 329 327 325 326 330 331 329 328 328 327 328 328 328 329 330 329 328 329 331 331 333 336 337 338 338 338 338 337 339 340 338 335 335 334 330 326 325 325 325 324 324 324 324 325 325 325 325 326 326 327 329 329 328 328 329 330 329 330 330 329 329
320 323 323 323 325 324 322 323 325 326 328 329 329 331 332 332 331 330 327 329 330 326 326 331 332 330 330 329 326 328 333 332 327 326 328 328 328 330 329 327 327 328 328 330 331 332 331 333 336 338 339 339 337 337 339 340 337 332 334 338 336 329 324 323 324 324 323 324 324 324 325 326 326 326 326 327 329 329 328 329 329 330 330 330 330 329 328
320 322 321 323 325 324 322 323 325 326 325 327 328 329 328 330 332 328 325 327 330 327 327 330 330 328 329 327 324 328 332 329 325 327 328 327 327 329 327 325 327 328 327 327 329 330 331 334 337 339 340 339 339 339 340 340 339 337 337 338 337 331 324 322 324 324 324 324 325 325 325 326 326 326 326 327 328 329 329 330 331 331 331 331 330 329 328
320 322 322 325 326 324 322 323 325 324 325 325 323 322 325 331 331 326 324 329 330 329 330 333 332 330 328 326 324 327 329 327 326 328 327 324 326 328 327 327 327 326 325 326 329 330 333 335 337 338 339 339 339 341 341 339 340 341 339 338 336 331 325 322 323 324 324 325 325 325 325 326 326 326 327 327 328 330 331 332 333 332 332 331 330 329 328
317 319 321 323 324 323 323 325 325 324 325 326 324 324 330 334 330 325 326 331 331 328 328 331 332 329 326 323 324 326 326 325 325 325 324 324 327 328 326 326 327 325 324 326 328 330 334 336 334 335 337 338 338 340 341 339 337 336 333 331 329 327 324 323 324 324 325 325 326 325 326 326 326 326 327 327 328 330 332 334 333 333 332 332 331 330 329
316 318 320 322 322 323 326 328 328 328 328 328 327 328 330 330 327 322 323 329 333 330 326 328 331 329 325 322 324 326 326 325 324 324 324 326 326 324 324 326 327 326 325 325 326 329 334 336 334 333 334 335 337 338 338 334 330 327 326 325 325 324 324 324 324 324 325 325 325 325 326 326 326 327 327 326 328 331 334 334 333 333 332 331 331 331 331
316 317 319 320 320 322 323 324 325 327 326 324 325 328 329 330 329 323 322 329 338 335 327 325 328 328 325 325 327 327 325 323 322 323 325 326 323 322 323 326 326 325 325 326 327 329 333 336 337 336 335 337 338 336 331 326 325 324 324 324 324 324 324 324 324 324 325 325 325 326 326 326 326 327 327 327 330 333 333 333 333 333 332 330 329 329 330
315 317 320 319 318 319 320 320 322 324 324 323 324 328 331 333 332 326 323 328 334 331 326 326 326 324 324 325 326 325 323 322 322 323 325 325 323 322 323 324 323 324 327 327 327 328 331 335 337 336 335 335 334 329 324 321 323 323 323 323 323 323 323 324 324 324 325 325 325 326 326 326 326 326 326 328 331 332 332 333 334 333 331 330 329 328 330
Wind_Speed
34 36 37 39 41 41 44 46 47 45 39 30 23 12 3 1 2 4 8 23 18 8 2 3 1 2 5 4 4 3 2 3 6 7 6 5 4 4 4 5 5 5 5 5 6 7 4 6 7 2 4 8 7 9 8 7 6 4 2 3 3 1 3 3 4 5 6 8 8 5 6 7 4 5 6 5 5 4 2 3 3 1 2 1 3 2 3
34 36 37 38 40 41 43 44 44 42 38 30 19 6 1 1 4 4 5 19 11 3 0 2 3 5 5 2 2 4 4 5 6 5 5 4 3 3 3 3 4 5 5 4 6 7 4 6 8 5 4 5 8 11 9 5 3 2 1 1 1 1 1 3 3 5 7 8 9 8 9 7 3 5 7 7 8 8 5 3 3 3 2 2 4 2 3
35 36 37 38 40 41 43 43 41 38 35 29 15 1 1 2 2 4 3 7 5 0 3 2 2 5 5 5 3 4 3 5 6 5 6 6 4 4 5 5 5 6 7 5 6 7 5 3 5 6 5 5 7 11 11 7 5 4 1 3 2 1 1 3 3 2 3 4 4 5 6 6 4 6 10 11 11 10 6 2 3 3 4 1 4 4 4
34 35 37 38 39 41 42 43 40 33 29 27 14 2 1 3 1 4 6 4 3 1 1 1 1 2 4 4 4 5 3 3 5 6 7 8 7 7 7 8 7 8 9 7 7 8 6 4 4 5 5 4 4 8 10 11 12 11 7 4 4 3 2 2 5 4 3 4 6 6 4 4 6 10 15 15 13 9 4 1 1 3 2 2 2 4 2
34 35 36 37 39 40 41 43 41 32 25 21 11 2 2 2 2 2 3 3 4 3 3 4 2 1 3 2 4 6 6 4 5 6 6 7 8 6 7 10 9 8 7 5 5 8 6 6 5 5 5 3 4 7 7 10 14 14 10 7 4 4 3 3 3 3 3 4 5 5 5 6 8 12 15 15 13 9 5 4 4 4 2 3 6 1 5
34 34 36 37 38 40 41 41 41 34 25 18 8 2 3 2 0 2 2 1 1 2 4 4 4 5 4 3 4 7 8 6 5 4 4 7 8 5 5 10 10 9 7 4 4 7 6 5 5 5 5 5 6 8 5 6 12 12 8 6 4 5 2 4 3 3 4 5 7 8 8 8 10 13 14 14 15 13 10 8 4 3 5 0 2 6 7
33 34 35 36 36 39 40 40 41 36 26 23 17 6 3 3 1 3 2 1 2 2 6 4 6 8 5 4 5 6 7 7 5 4 3 5 7 5 5 8 9 10 8 5 4 5 4 3 4 4 6 6 5 5 5 4 9 10 6 4 3 3 2 4 4 5 7 8 9 9 9 9 11 14 15 13 14 14 13 12 11 11 11 5 5 10 9
32 33 34 35 35 38 39 39 39 37 30 26 21 10 5 2 2 4 3 3 3 3 5 3 7 7 5 4 4 4 7 6 5 5 5 3 4 5 5 6 7 8 8 7 4 3 1 2 4 2 5 5 3 2 3 3 7 8 4 3 3 3 2 4 4 5 6 6 7 8 6 9 12 15 16 14 13 14 14 13 12 10 8 6 8 10 8
31 32 32 34 34 35 38 38 37 36 33 25 13 8 10 5 4 4 2 2 5 4 4 4 5 4 5 3 4 4 6 6 4 5 6 5 5 4 5 6 5 5 7 7 3 4 4 4 6 5 3 4 2 1 2 2 5 5 2 3 3 2 1 3 5 4 4 5 6 7 4 8 12 15 16 14 12 11 10 10 11 9 5 6 10 9 5
30 31 32 32 32 33 35 37 36 34 33 25 9 7 17 11 5 5 1 1 4 4 4 5 5 3 4 4 4 5 5 5 5 4 4 6 7 5 6 7 4 3 6 6 5 6 6 7 7 6 6 6 5 5 5 3 2 3 2 2 2 2 2 0 3 2 4 5 5 6 3 5 7 9 12 12 10 9 9 10 13 12 8 6 7 4 5
29 30 31 31 31 32 33 34 35 32 31 26 12 9 18 13 4 4 2 2 4 5 4 6 5 3 5 6 6 6 5 5 5 3 1 4 5 5 7 7 4 1 2 5 6 6 7 7 7 6 6 7 7 5 6 6 5 5 2 2 2 2 4 2 1 2 3 6 5 5 5 3 2 4 7 9 9 10 9 8 11 12 9 5 4 2 5
29 29 30 30 29 30 31 31 32 30 26 22 15 13 21 17 5 2 3 4 4 5 4 4 5 5 7 8 7 8 8 5 2 5 3 2 4 5 6 6 4 1 5 6 6 6 6 5 5 5 5 6 7 6 6 7 6 4 3 4 2 2 2 1 1 2 1 3 5 6 3 1 2 2 4 5 4 5 6 5 7 10 9 7 6 5 7
29 29 29 29 28 28 29 29 30 28 23 19 16 17 24 21 7 1 2 4 3 5 3 3 8 10 10 10 7 7 10 8 4 5 4 1 3 5 4 3 2 3 5 6 6 6 5 4 4 5 4 2 1 2 4 4 3 7 5 0 2 3 3 1 2 1 0 2 4 2 2 2 1 1 3 6 4 5 6 3 4 8 8 7 7 6 7
28 28 28 28 27 27 28 28 29 28 23 18 17 19 26 25 12 1 2 4 2 4 3 4 8 10 8 9 7 6 8 9 7 5 3 0 3 5 3 3 4 5 4 3 5 4 3 3 4 4 5 5 4 3 3 3 7 10 10 7 5 4 3 2 2 2 2 2 1 0 2 1 2 1 3 5 3 3 4 2 2 6 5 5 6 6 7
26 27 28 27 26 26 26 26 27 27 24 18 16 19 26 28 17 4 1 2 2 3 5 4 5 6 5 6 6 5 5 6 6 5 5 3 3 5 6 8 9 7 4 3 3 3 2 3 3 3 4 4 2 1 2 3 4 7 8 8 7 5 4 3 2 1 2 3 2 2 1 0 2 4 5 4 3 4 3 3 2 4 4 4 5 5 6
26 26 28 27 26 25 25 25 25 26 25 19 16 18 23 28 24 11 2 2 3 2 4 5 4 3 3 3 5 5 3 3 4 3 4 5 4 4 7 10 10 10 7 3 2 3 3 3 2 2 2 2 2 1 2 2 2 4 7 9 10 7 4 4 4 2 2 3 2 0 1 2 3 5 6 5 7 6 2 3 2 4 4 4 4 4 5
24 25 27 27 25 24 24 24 24 24 25 21 16 17 21 26 27 17 3 1 4 2 3 7 5 4 4 3 4 4 3 3 3 2 2 4 3 4 7 8 8 10 8 4 3 4 4 3 2 3 2 2 1 1 2 3 3 5 6 7 8 6 4 5 5 2 2 2 2 0 1 2 4 6 6 7 8 6 3 1 4 4 5 5 3 4 5
23 24 26 26 25 23 23 23 23 23 24 21 15 14 19 24 26 19 6 1 3 2 5 9 6 4 4 3 1 2 2 2 3 2 1 3 2 3 5 5 5 6 6 4 3 3 4 3 2 3 1 3 2 2 1 2 2 3 4 4 5 4 3 3 4 2 3 3 1 1 1 2 4 6 7 8 7 6 4 2 6 5 7 7 4 4 4
22 23 24 25 24 23 22 22 22 22 22 22 16 13 17 22 24 21 11 3 2 1 6 10 8 4 3 3 1 2 3 2 2 2 2 3 3 4 5 3 3 4 4 4 3 3 3 2 2 2 2 3 2 2 1 2 1 2 3 3 3 3 3 2 2 2 3 2 1 1 2 3 4 5 6 6 5 2 2 4 5 5 7 7 5 5 5
21 21 23 24 23 22 21 21 21 21 21 22 18 13 15 21 23 21 12 3 1 1 5 6 6 5 4 4 3 3 3 3 3 3 3 2 4 3 4 3 3 3 4 4 3 2 2 2 3 2 3 2 1 2 1 2 3 2 2 2 1 1 1 2 2 1 2 2 3 2 1 4 4 6 5 5 3 2 5 4 4 5 6 5 4 5 5
20 20 22 24 22 20 20 20 20 20 19 20 19 14 15 19 22 20 13 3 2 1 3 5 7 8 7 4 2 2 2 3 2 2 3 3 3 3 4 1 3 1 2 2 2 1 1 1 2 2 2 1 2 2 1 1 3 4 1 3 2 1 2 0 1 0 1 1 0 1 4 5 3 3 0 2 2 3 3 4 5 5 5 5 5 5 5
19 19 21 23 20 19 19 18 18 19 19 20 19 15 16 20 23 22 12 1 4 3 6 9 10 10 9 5 1 2 3 4 5 4 3 0 3 2 3 1 2 1 1 1 3 1 2 1 0 1 2 2 2 2 2 2 1 4 4 3 2 2 2 3 2 1 1 3 4 4 4 4 3 1 3 3 4 4 4 4 5 5 4 5 5 6 7
17 18 20 21 19 18 18 18 17 17 17 19 18 16 17 20 25 25 14 2 2 5 8 9 8 7 6 4 1 2 4 5 6 6 5 3 2 3 3 3 2 1 1 2 3 2 1 1 1 1 1 1 2 3 3 2 1 2 3 3 1 3 2 2 2 1 2 1 2 1 2 4 5 3 2 3 3 4 5 4 5 5 5 5 5 6 7
15 17 19 20 18 17 17 17 17 15 16 17 15 14 15 17 23 26 17 5 3 3 3 3 2 3 3 2 5 4 3 4 5 5 4 4 4 2 2 1 1 2 3 2 2 2 1 1 0 2 2 0 2 3 2 2 0 0 1 2 2 3 2 2 2 1 1 1 3 2 3 5 6 3 4 5 5 5 5 5 6 7 6 6 7 7 7
14 16 18 18 17 16 16 16 16 15 15 15 12 12 13 15 20 21 13 4 2 3 2 2 2 5 7 5 7 5 5 4 3 3 3 5 7 5 1 1 2 2 2 3 1 4 2 1 1 2 1 0 1 2 1 1 1 0 1 0 3 2 2 2 1 1 1 3 5 4 4 5 4 3 5 7 6 7 7 6 7 7 7 7 8 8 6
14 15 17 17 16 16 16 16 15 14 13 12 11 11 12 14 19 18 11 5 2 2 2 2 4 7 13 9 1 2 5 4 3 3 4 5 6 5 2 0 1 3 2 2 2 3 2 0 2 2 1 0 1 2 1 1 1 1 1 3 3 1 2 1 0 2 2 3 4 5 6 6 5 5 6 7 6 8 9 8 7 7 7 8 9 9 8
13 14 16 16 15 16 16 15 15 14 12 10 10 8 7 11 16 16 11 8 4 1 1 2 4 9 17 12 4 2 3 3 2 3 3 4 4 3 3 3 2 3 4 4 2 1 2 2 1 1 1 1 1 1 1 1 1 3 1 3 1 2 1 0 2 2 2 3 3 2 3 4 6 7 8 9 8 8 8 8 8 9 9 9 10 11 11
12 14 15 15 15 16 16 15 15 14 12 10 8 4 5 9 13 14 10 7 4 1 2 2 4 9 13 9 4 3 4 5 4 3 4 5 6 4 3 4 4 2 3 3 2 2 2 2 1 1 1 1 1 1 2 2 2 2 1 3 1 2 3 2 2 2 4 5 5 3 2 3 6 7 8 8 7 7 8 9 10 10 10 10 9 10 11
12 13 14 14 14 15 15 16 15 14 13 11 5 5 6 4 8 12 11 7 3 2 1 1 4 5 5 6 8 6 7 7 5 5 6 8 9 7 5 4 3 2 2 3 2 1 0 1 1 1 1 2 1 1 1 2 2 2 4 4 3 2 3 4 5 4 3 5 5 4 3 4 6 7 8 7 7 7 8 10 10 10 11 11 10 10 11
12 13 13 13 14 15 15 15 15 14 14 11 5 4 3 1 3 9 11 7 3 2 1 1 1 3 4 6 7 9 11 10 8 8 9 9 9 10 9 6 3 1 2 2 1 1 1 2 1 1 0 2 3 1 1 1 1 3 4 3 3 3 1 1 3 2 2 5 5 3 4 6 7 6 6 6 8 9 8 9 11 12 13 13 11 10 12
11 12 12 13 14 15 14 14 14 13 13 10 5 2 2 1 2 7 11 8 4 2 1 1 1 3 4 5 4 9 13 14 12 10 10 10 8 8 10 8 3 2 2 1 1 2 2 1 1 1 1 2 3 2 2 2 1 4 4 3 4 3 1 1 2 2 3 4 4 4 5 5 5 5 5 6 10 11 8 9 13 16 16 16 15 13 15
10 11 12 13 14 15 13 12 12 12 11 9 6 3 2 3 4 7 9 9 5 1 2 1 2 2 2 4 4 2 5 9 6 2 4 6 4 4 6 6 4 3 4 2 0 1 2 2 2 1 1 1 2 2 2 2 2 4 4 4 4 4 2 1 3 3 3 4 4 5 6 5 4 5 6 8 12 13 11 11 16 18 18 17 17 16 16
10 11 12 13 14 14 12 11 10 10 9 8 7 5 4 4 6 7 7 7 4 1 1 1 1 1 3 4 4 4 6 1 0 3 2 2 2 2 2 2 1 1 1 1 1 1 2 1 2 1 1 1 2 2 1 2 4 5 5 4 4 3 1 1 2 3 4 5 3 2 4 6 5 7 10 11 12 13 13 14 15 16 14 12 12 13 14
10 11 12 12 13 13 12 10 8 7 7 7 6 4 5 7 9 8 5 4 2 1 1 1 1 1 3 3 3 4 6 3 0 1 1 2 1 3 1 1 3 2 1 1 1 1 2 1 2 1 1 1 2 2 1 4 4 4 4 3 2 1 2 3 3 3 4 5 4 4 6 6 7 8 9 9 10 13 14 14 12 11 10 8 9 10 11
9 11 11 12 12 12 10 8 7 5 5 4 4 5 8 11 12 8 4 2 1 1 0 0 1 1 2 3 2 4 5 3 1 2 1 2 0 1 1 0 2 1 2 1 1 0 1 1 2 1 1 0 1 1 3 4 5 4 3 1 1 2 3 3 3 5 5 5 5 5 6 6 6 7 7 7 9 10 10 10 9 9 8 8 9 10 9
9 10 11 11 10 9 7 5 4 3 3 5 8 11 13 14 10 4 2 2 0 1 1 1 1 1 1 0 2 4 5 3 2 1 1 1 2 1 1 2 1 2 1 1 1 1 1 1 1 1 0 1 2 4 5 5 5 4 4 3 3 3 1 3 5 5 6 6 6 6 6 5 6 6 6 7 8 7 8 9 9 9 9 9 10 10 8
8 10 10 9 7 5 3 2 3 4 8 12 14 14 13 9 4 1 1 1 1 2 1 1 0 3 2 1 2 3 3 3 2 3 3 2 2 2 1 2 0 2 2 3 1 2 1 1 2 2 2 3 3 5 4 5 5 4 4 4 4 3 3 4 5 4 5 7 7 6 6 6 6 6 6 7 8 8 8 9 8 8 9 9 9 9 10
8 8 7 6 4 2 1 2 5 10 15 16 12 8 5 2 1 1 1 1 1 1 1 1 2 3 1 1 2 2 1 1 2 3 2 1 2 2 2 2 0 0 2 2 3 2 1 2 1 2 3 3 3 3 3 4 5 4 4 4 4 4 3 5 4 3 5 6 7 7 6 6 7 8 8 8 8 8 8 9 9 9 9 9 10 11 13
6 6 5 3 1 1 3 5 9 13 14 11 5 2 1 1 1 1 1 1 1 1 1 1 3 3 2 1 2 3 1 3 3 3 2 1 1 1 1 1 1 0 1 2 3 0 1 1 1 1 2 3 2 2 3 4 3 3 3 4 5 4 4 4 4 3 4 5 6 6 6 7 8 8 8 7 7 8 9 10 11 12 11 11 13 14 12
5 5 3 1 2 5 9 12 13 12 8 4 0 0 1 1 1 1 1 0 0 1 2 2 2 3 2 3 0 2 2 2 2 1 1 1 1 0 1 0 1 1 1 2 2 1 1 1 0 0 2 3 3 3 2 3 2 3 3 4 5 6 5 5 6 7 7 7 8 9 10 10 10 9 8 7 6 7 9 10 12 14 15 14 15 15 14
5 4 3 4 8 13 15 13 9 5 2 0 0 1 0 1 2 1 1 1 1 2 2 1 0 2 1 1 2 0 1 1 2 2 1 1 1 1 2 1 1 2 1 3 2 2 2 0 0 0 2 4 4 2 1 2 2 3 4 5 5 5 5 6 8 9 9 8 8 10 13 14 13 12 11 9 8 8 9 11 13 16 16 16 17 18 18
4 5 7 11 13 13 10 6 2 0 1 1 1 1 1 1 1 1 1 2 2 2 1 1 2 2 2 1 2 2 1 1 1 2 2 1 2 1 1 1 1 2 1 4 1 2 1 0 0 1 4 4 2 2 3 3 3 4 6 7 7 6 6 6 7 10 12 10 9 11 14 15 15 15 15 13 11 12 13 13 14 16 18 18 18 19 19
5 7 8 9 7 4 2 1 0 1 1 1 1 1 2 2 1 1 1 1 0 1 1 1 0 0 2 2 1 1 1 1 1 2 1 1 1 1 1 1 0 1 3 2 1 1 1 0 1 3 5 2 2 2 2 2 3 3 6 9 9 8 8 8 8 10 14 14 13 14 16 16 16 18 18 16 14 13 15 16 16 17 19 19 19 19 19
4 4 3 3 2 0 1 1 1 1 1 0 1 1 1 2 1 1 1 1 1 1 1 1 2 2 1 1 1 1 1 1 1 1 0 1 0 1 1 1 2 1 1 1 1 0 1 1 2 4 4 0 1 2 3 3 3 3 5 8 11 10 9 10 10 10 12 13 15 16 16 17 17 18 19 19 16 13 15 17 18 18 19 19 18 19 20
2 1 1 2 2 1 1 1 1 0 1 2 2 3 3 2 2 2 2 1 1 1 1 2 4 4 1 1 0 1 0 1 1 0 0 0 1 1 1 2 2 1 1 1 1 0 0 1 3 4 3 2 2 3 3 3 4 3 4 6 8 8 7 8 9 8 9 12 15 16 16 16 16 16 18 20 20 16 16 17 18 18 18 18 17 18 20
1 1 2 2 1 2 1 0 1 1 2 3 3 3 4 4 4 4 2 1 3 4 3 3 5 4 1 2 1 0 0 1 1 1 0 2 1 1 2 1 1 1 1 1 1 0 1 3 4 4 4 4 4 4 4 4 4 4 4 4 5 6 8 9 9 9 11 14 16 15 15 15 16 16 18 20 21 19 18 18 18 17 17 16 16 18 20
2 2 2 2 1 2 1 2 3 3 2 3 3 4 5 4 3 2 1 2 4 5 4 3 3 2 1 1 1 1 1 1 1 1 0 2 1 2 1 2 0 1 1 1 1 1 2 3 4 4 5 5 5 5 5 5 4 5 5 5 5 6 9 9 9 10 13 15 15 14 14 15 16 17 18 18 19 19 19 19 18 16 15 15 16 18 18
1 0 1 1 1 2 2 3 3 3 3 4 4 5 4 1 2 2 2 1 3 4 4 3 2 2 2 2 1 1 1 1 1 1 1 1 1 1 2 1 1 2 0 1 2 3 3 4 4 5 5 5 4 4 5 5 5 6 6 5 6 7 8 9 9 12 14 15 13 13 15 16 17 19 18 17 17 18 19 17 15 14 14 14 16 17 17
1 0 0 1 1 2 3 3 2 3 4 4 3 3 2 3 4 1 1 1 3 4 3 3 3 2 0 1 1 1 1 1 0 1 1 1 1 0 0 0 2 2 1 0 1 2 2 3 3 3 4 4 4 4 5 5 5 6 6 7 8 9 10 10 11 13 15 15 14 15 17 18 18 18 17 16 16 18 17 15 13 13 14 15 16 16 17
1 0 0 1 1 2 2 2 2 3 5 4 4 4 3 3 2 1 1 1 3 3 3 2 2 2 1 1 2 2 1 2 0 1 1 1 1 1 1 1 2 1 1 1 1 0 1 2 3 3 4 4 4 4 5 5 5 6 8 9 10 11 12 13 14 15 16 17 18 18 19 18 18 18 18 18 18 17 15 12 11 12 15 16 16 16 17
1 1 2 2 2 2 1 2 1 2 4 5 5 4 0 2 1 2 1 2 4 4 3 1 1 2 3 2 1 0 1 1 1 1 1 2 1 1 1 2 3 3 2 2 2 3 3 3 3 4 3 4 4 5 6 6 6 7 9 10 11 12 13 14 15 16 17 19 20 19 19 19 20 20 21 20 18 14 11 10 11 12 13 15 15 15 16
1 1 2 3 3 2 2 2 2 3 4 4 4 3 1 3 3 3 0 4 4 2 1 1 2 3 2 1 2 1 0 0 0 0 1 2 2 2 3 2 2 2 4 4 4 3 2 3 3 4 5 5 5 6 7 8 8 8 9 11 12 13 14 15 16 17 17 18 19 19 19 21 23 23 21 18 13 8 7 8 10 11 12 13 14 14 14
Wind_Direction
7 6 5 4 4 4 4 4 4 3 2 0 358 358 24 85 257 284 181 171 157 95 38 295 351 253 259 229 244 322 51 34 19 20 16 31 37 13 17 17 15 26 25 25 24 18 31 39 27 40 70 50 11 347 7 35 47 65 59 335 311 38 68 31 322 300 300 309 321 356 21 23 20 354 355 358 352 354 325 279 281 325 330 2 63 62 281
9 8 6 5 4 4 4 5 6 6 4 359 357 1 21 297 259 303 197 188 186 61 174 276 334 286 296 360 19 16 47 43 33 24 6 12 31 17 4 2 12 19 21 40 43 33 40 39 29 31 43 30 2 356 6 38 63 65 153 189 323 330 50 54 12 344 338 340 346 349 353 8 13 332 335 339 338 343 333 319 6 358 273 156 109 139 238
10 9 8 7 5 5 5 6 7 9 4 358 358 359 313 340 251 310 310 204 211 142 172 194 313 306 343 26 23 12 40 41 37 40 24 14 23 29 4 1 26 28 21 28 35 43 54 39 38 41 14 360 357 354 1 26 39 13 232 154 108 91 107 93 85 27 331 326 326 315 320 334 331 322 332 336 337 339 334 342 18 324 280 148 123 171 216
11 10 9 8 7 6 6 6 8 11 6 356 351 318 310 17 49 321 332 354 17 325 227 77 49 317 20 31 353 14 50 26 25 47 40 14 19 44 24 11 28 25 20 26 13 18 37 39 48 47 10 352 334 343 8 34 28 11 9 32 71 93 64 97 138 163 207 220 243 259 283 321 326 337 344 343 336 329 324 345 310 237 248 341 270 182 132
12 11 10 9 9 8 7 7 8 12 12 0 350 352 45 40 52 15 340 335 360 348 336 18 34 322 76 59 351 29 53 26 16 35 42 25 23 44 32 21 30 16 6 31 13 357 18 39 34 21 5 346 320 335 13 41 28 20 18 13 42 88 27 7 116 162 229 229 259 290 333 349 353 357 352 348 351 359 18 349 286 210 138 314 294 2 70
13 12 12 11 10 10 9 8 9 13 19 20 25 53 34 44 242 23 48 267 297 350 320 338 21 28 57 59 23 44 48 32 24 17 39 43 29 34 30 17 22 20 14 54 31 357 10 24 7 1 360 348 344 347 357 34 30 24 17 10 53 101 38 356 40 24 348 350 345 346 360 9 19 15 360 358 11 25 36 15 348 94 96 346 316 60 69
14 13 12 12 12 12 11 10 11 14 23 42 58 53 349 35 17 335 10 292 232 252 293 320 47 37 32 47 35 47 47 29 16 4 31 44 25 41 54 12 12 28 35 66 61 14 19 3 335 2 8 349 352 354 333 2 25 22 13 360 34 86 8 353 40 29 356 354 349 351 10 31 34 20 9 14 21 25 33 28 31 62 75 69 61 65 63
14 13 13 13 13 14 14 13 13 14 23 42 57 49 4 30 351 330 357 337 297 286 315 6 67 38 26 50 25 37 56 33 11 28 53 59 20 33 55 27 29 45 46 61 65 17 3 282 287 326 360 340 344 3 317 332 3 5 1 335 359 67 323 327 55 45 339 330 336 345 26 63 47 22 12 18 22 23 27 25 22 43 61 52 48 54 45
14 13 14 13 14 15 16 16 15 17 25 37 53 34 10 349 286 329 20 332 327 328 341 25 75 42 17 32 14 35 53 31 23 47 50 57 45 41 62 52 45 54 48 47 21 315 299 268 264 268 280 272 232 223 279 341 351 337 318 310 340 70 330 325 65 61 305 295 330 337 33 76 49 24 11 11 21 24 23 24 20 19 26 36 41 38 3
14 14 14 14 15 15 16 19 19 19 27 37 49 13 6 357 322 349 37 215 338 347 357 23 56 43 2 13 35 57 67 51 54 54 17 31 45 55 75 66 44 34 28 5 311 283 275 262 258 257 247 237 217 219 248 268 274 267 289 308 279 135 122 30 80 79 280 283 316 335 31 66 40 18 4 3 21 27 23 25 20 14 18 36 47 25 316
14 14 14 14 15 15 16 20 22 22 27 35 42 16 5 359 322 330 30 85 357 352 28 34 34 17 2 22 38 41 53 55 64 86 5 4 27 54 71 68 55 20 320 295 280 273 270 265 261 254 241 242 241 232 246 260 245 231 245 288 292 90 113 167 140 116 276 294 324 13 50 65 67 36 10 6 22 29 31 29 15 11 19 33 53 19 332
13 14 14 14 15 15 15 18 23 26 29 32 35 24 9 2 333 296 43 75 11 359 42 43 19 9 9 23 37 32 26 21 69 120 119 350 14 50 64 68 62 323 272 276 301 318 310 300 289 281 261 245 241 233 235 255 274 284 244 224 251 41 90 203 124 120 243 319 17 39 49 169 164 107 15 5 26 36 45 51 22 14 13 10 17 7 345
12 13 14 14 15 16 15 16 21 25 29 32 32 26 15 12 18 31 44 79 39 2 21 21 10 16 19 22 31 32 23 13 26 84 97 45 52 59 56 63 42 286 275 295 332 349 341 332 330 317 309 294 254 268 257 254 348 9 5 103 137 118 132 126 67 70 22 32 42 55 195 198 145 121 4 5 8 6 13 37 30 14 7 359 359 353 340
9 12 15 15 15 16 15 15 17 21 27 31 30 28 22 19 23 27 24 78 68 348 14 25 1 7 23 25 24 27 20 13 14 20 1 267 94 74 49 11 322 295 291 332 358 15 20 358 359 350 346 11 38 13 355 65 68 45 30 30 53 90 103 79 61 53 88 114 62 277 180 95 15 338 346 358 344 326 332 314 342 356 353 345 345 345 343
6 10 13 14 15 16 14 14 15 17 23 31 34 33 26 18 17 10 332 98 104 356 19 29 346 349 13 17 17 28 22 10 4 347 329 341 61 50 14 349 342 346 3 20 14 19 46 47 30 19 8 6 4 337 1 48 59 46 43 46 49 59 81 95 101 56 72 101 56 4 19 161 291 272 281 295 280 274 250 206 255 315 316 331 335 336 343
6 8 12 14 15 15 14 14 13 14 19 27 36 37 28 19 15 8 322 126 100 45 355 354 353 11 18 355 5 28 43 14 357 345 347 359 15 15 348 338 356 21 29 20 18 30 46 57 58 69 52 343 323 325 344 348 347 2 27 47 51 48 56 77 80 47 36 94 111 44 219 204 243 275 290 299 302 306 281 179 216 257 287 326 327 315 332
5 6 9 12 14 15 15 13 13 14 15 20 31 36 31 22 14 10 356 112 68 81 334 347 13 45 31 3 349 5 24 7 7 37 10 339 334 348 342 335 359 27 34 28 27 38 47 45 46 65 32 319 3 83 360 355 348 334 354 26 36 32 24 47 63 49 26 81 113 219 220 221 265 296 309 304 308 338 55 165 250 274 308 324 316 307 321
4 5 7 10 12 14 15 12 12 14 13 16 28 37 32 24 17 15 26 68 57 60 322 340 18 60 33 22 311 337 7 1 11 38 335 326 343 341 333 331 354 10 24 44 43 41 51 39 39 87 52 323 14 84 21 4 354 322 347 20 22 11 6 45 77 57 28 63 85 301 255 242 284 305 308 311 331 22 72 217 253 287 314 312 306 306 315
2 3 6 8 10 13 14 12 11 12 12 14 23 35 33 26 20 21 28 48 77 72 304 334 18 44 15 26 35 355 9 15 40 71 38 345 320 306 314 343 15 2 13 48 47 42 54 20 343 94 78 337 349 87 62 4 338 329 15 35 22 5 349 10 63 34 6 50 79 342 292 269 307 323 320 340 17 52 222 246 262 295 309 307 311 317 319
0 2 3 4 7 11 14 12 10 10 10 12 17 24 28 25 23 24 25 21 52 314 283 320 19 16 4 46 57 11 17 33 46 91 124 236 284 335 16 2 344 7 29 38 33 28 52 10 320 38 70 338 339 90 54 323 329 360 70 96 49 45 33 351 1 356 2 37 49 37 259 266 329 1 354 5 48 210 247 276 299 309 313 313 317 317 316
358 1 1 2 4 8 12 12 10 9 8 9 12 14 15 20 23 21 15 5 139 113 293 320 348 335 329 4 48 29 60 98 114 130 159 246 294 54 82 306 301 17 40 37 53 30 21 338 305 357 51 338 2 70 69 342 341 340 58 114 54 31 124 166 298 284 81 72 226 202 218 255 322 31 92 270 262 249 279 326 322 314 316 316 317 312 305
357 359 360 1 3 6 9 10 10 8 5 6 10 13 10 11 17 19 15 326 195 223 274 298 314 313 309 313 352 36 61 96 104 105 118 342 340 55 102 57 8 59 160 109 92 36 341 19 335 24 43 355 3 41 75 93 43 317 340 66 66 278 211 169 182 223 178 186 213 224 230 265 300 211 199 247 286 296 328 344 325 312 308 307 312 309 303
356 358 359 1 4 5 6 7 8 8 5 4 8 13 12 9 12 17 24 46 240 269 273 289 307 310 303 285 195 102 77 80 73 67 82 92 35 29 55 51 36 41 71 108 135 163 163 155 177 94 80 8 24 40 27 54 117 289 343 47 146 266 279 115 125 290 296 227 233 272 322 313 312 296 259 284 305 312 329 333 311 301 297 297 300 299 298
355 357 357 0 3 4 3 3 3 4 6 7 9 13 17 19 15 13 17 33 29 352 306 303 332 339 317 196 153 116 68 66 69 62 60 78 94 73 352 344 59 35 345 278 189 144 117 207 151 77 90 152 90 86 60 21 65 191 32 16 316 309 353 62 69 20 7 300 284 318 335 307 301 307 321 328 328 315 316 312 295 288 286 291 296 293 292
353 353 355 359 2 2 1 359 357 360 6 11 15 18 24 29 24 19 18 15 19 40 23 319 322 9 28 84 126 95 55 54 79 90 70 71 96 116 184 245 103 70 310 274 45 67 52 328 62 77 99 182 105 106 113 137 247 218 101 225 281 318 44 60 25 345 198 230 260 289 311 300 297 327 335 330 323 308 306 307 296 287 284 290 298 296 293
350 350 353 358 0 360 358 355 352 354 2 10 14 17 27 32 27 25 24 5 346 106 59 310 279 349 9 12 25 64 66 77 87 105 103 82 94 122 154 142 43 20 1 353 45 79 102 64 71 92 137 236 129 145 165 207 239 66 126 215 233 37 53 78 358 326 298 274 290 323 338 330 328 333 321 311 304 301 304 308 306 303 301 301 303 301 297
344 347 351 355 357 356 353 350 347 347 353 5 8 12 35 43 33 29 26 17 14 91 356 313 272 321 338 332 280 192 116 122 124 134 144 124 113 129 133 114 66 9 23 25 9 64 86 48 43 151 191 287 49 116 194 255 108 90 115 254 269 56 50 184 66 29 304 274 277 309 331 314 306 309 309 307 307 308 310 315 318 315 309 305 303 303 301
339 343 348 351 353 352 349 346 344 342 344 353 2 31 72 56 38 32 30 30 46 139 217 248 275 306 321 317 271 211 174 168 170 187 194 169 146 143 130 111 101 72 58 48 14 31 58 37 323 229 195 70 20 349 334 3 45 67 264 264 230 146 174 173 133 174 236 254 257 243 232 267 278 286 296 300 305 312 315 313 312 306 301 299 298 299 302
335 340 343 344 346 348 346 344 342 340 344 352 17 100 107 69 31 25 24 30 55 101 184 277 300 299 306 306 290 251 199 186 193 204 195 174 165 172 171 145 134 146 124 101 80 60 348 243 232 251 181 133 129 306 330 21 9 282 248 242 232 210 194 179 173 190 242 269 264 245 245 271 274 278 285 291 301 309 309 305 303 299 298 298 296 293 294
331 335 338 338 341 344 345 344 340 338 344 354 19 99 93 22 360 16 20 27 39 46 90 97 309 294 302 300 272 220 195 195 204 204 191 174 170 179 179 175 179 142 98 80 98 141 237 280 288 300 294 121 116 129 163 137 278 263 248 250 272 296 313 204 184 192 261 270 261 259 274 275 277 281 282 290 304 309 306 305 305 303 301 303 302 298 295
326 329 331 333 336 340 343 343 339 334 339 351 10 75 72 338 333 7 14 17 12 15 86 116 275 295 312 303 246 201 199 205 207 205 194 179 178 190 189 183 183 152 130 128 205 179 189 235 264 292 322 66 94 131 152 142 275 273 256 250 261 265 288 322 301 291 290 290 302 318 303 288 299 313 304 302 312 314 309 306 307 307 306 306 305 302 301
320 323 325 327 331 335 340 340 334 327 327 332 325 292 268 279 313 354 7 4 352 8 101 56 333 327 319 289 271 233 204 206 203 183 172 172 167 190 199 194 189 177 166 152 124 235 215 188 176 215 289 62 92 111 129 144 223 243 228 228 250 243 213 255 309 316 322 325 335 338 322 311 315 316 306 305 313 315 312 308 309 309 308 306 304 303 304
314 316 318 321 325 332 336 334 327 320 316 316 312 308 317 327 332 347 357 351 333 290 133 75 36 290 289 273 284 5 24 14 346 35 37 200 160 140 201 224 146 134 183 181 181 230 238 162 135 152 309 359 87 99 147 213 221 216 209 216 236 233 207 306 329 327 320 317 315 298 287 285 289 300 303 303 307 309 306 304 306 309 308 306 307 308 307
311 312 315 318 323 328 330 328 324 316 313 320 326 339 351 345 340 341 338 325 321 310 328 60 105 270 306 307 299 354 19 26 186 36 330 259 178 129 178 318 33 52 293 248 187 238 299 45 113 132 283 333 73 96 246 252 232 205 201 214 210 107 44 2 342 306 291 298 297 268 256 268 292 308 308 303 304 306 306 303 304 308 309 308 307 307 306
311 312 316 319 323 323 322 325 330 322 316 325 327 331 335 333 333 336 319 282 7 49 289 120 122 269 341 2 324 329 359 12 228 203 216 250 304 120 161 77 33 332 245 194 133 236 256 187 140 149 261 9 86 193 235 230 215 197 180 175 149 90 52 356 305 285 284 292 296 284 275 285 305 308 301 297 301 305 305 304 306 308 307 305 304 304 304
312 316 322 327 327 321 314 326 342 339 335 327 314 311 317 319 317 309 233 218 182 150 216 40 91 177 141 59 283 314 358 4 304 299 16 6 346 354 90 87 33 261 239 75 59 259 236 192 132 96 254 170 194 232 219 184 175 178 167 179 199 175 166 248 260 277 295 303 302 296 294 300 301 296 292 295 298 301 302 305 310 312 309 306 305 304 303
313 319 326 332 334 326 310 321 342 336 331 326 315 307 307 308 302 217 165 202 217 210 177 75 231 225 187 176 257 316 14 12 340 2 18 4 317 317 60 86 250 277 1 22 293 220 233 21 106 133 206 220 221 233 212 165 162 175 175 200 222 211 214 248 262 293 314 319 321 315 309 308 303 298 300 302 303 309 312 310 310 310 307 305 304 303 304
320 323 328 337 352 3 326 322 334 330 325 322 317 308 298 292 114 91 346 74 149 214 153 114 248 254 181 117 268 292 8 15 7 22 23 295 313 337 27 75 139 277 13 323 259 203 65 16 111 168 242 258 243 233 211 171 168 178 176 191 218 228 241 257 278 325 333 327 324 318 315 318 314 310 310 307 304 308 310 305 303 304 302 301 302 301 302
336 337 337 343 10 235 278 310 324 325 322 318 317 314 301 104 88 340 292 122 106 279 216 167 230 235 171 134 292 305 37 72 49 21 332 288 306 342 10 8 317 50 43 304 281 290 48 309 269 205 274 288 285 251 213 165 166 200 207 206 223 238 246 254 273 296 292 284 284 287 293 299 300 303 307 304 301 306 309 307 307 308 306 304 306 305 302
347 343 329 307 272 284 297 309 317 322 323 324 346 84 36 66 121 198 214 130 351 254 199 187 230 237 177 142 174 324 11 73 115 154 260 279 255 124 80 11 269 75 50 285 271 122 116 254 294 11 276 278 275 252 189 142 168 242 252 248 250 252 254 268 290 297 290 285 290 295 296 295 294 297 299 295 296 306 309 309 309 309 308 309 311 310 305
359 352 320 300 302 302 305 311 316 318 326 25 11 13 44 250 251 220 154 140 273 251 208 145 72 302 289 127 130 164 312 304 154 140 115 307 295 67 83 258 264 77 70 259 248 109 104 212 208 204 252 267 273 265 106 71 351 313 313 305 291 286 290 295 302 308 308 303 300 303 306 305 303 300 295 288 289 299 302 302 307 309 308 309 310 310 309
320 314 305 304 302 301 305 315 320 281 97 51 345 321 263 231 254 274 163 183 206 225 243 153 161 200 237 187 137 155 251 297 53 82 80 287 279 95 115 261 353 79 231 250 230 92 91 279 64 276 271 282 311 13 41 18 337 329 323 309 305 314 318 309 307 315 317 311 300 301 308 309 306 305 301 293 292 299 301 301 304 307 307 308 310 312 313
271 279 292 301 299 292 305 319 239 124 59 54 49 331 322 308 279 263 267 272 289 64 359 314 281 56 13 19 57 82 48 51 70 81 105 233 269 51 60 328 346 192 239 261 52 69 255 204 150 250 260 279 27 32 8 327 315 327 324 313 314 326 330 322 316 318 319 317 312 309 310 308 307 310 309 302 295 300 305 306 308 310 310 311 314 316 318
281 260 267 290 286 172 40 321 264 143 97 344 153 147 278 294 290 229 231 299 345 359 334 22 71 76 39 345 26 42 19 37 52 49 15 257 335 56 72 253 246 234 263 329 37 201 227 198 219 247 251 239 14 315 304 306 311 322 321 317 321 330 334 330 325 319 317 317 315 312 312 311 310 312 314 310 304 301 304 307 311 315 315 315 316 320 322
323 251 86 18 331 334 74 354 310 267 200 226 205 182 198 224 213 191 196 178 116 100 32 46 74 86 85 290 22 74 330 24 49 29 239 44 24 3 233 234 251 317 359 309 287 312 326 264 254 253 244 229 246 261 261 261 268 273 285 301 310 316 319 318 316 309 304 307 309 310 311 311 310 310 313 313 310 306 306 309 312 315 317 316 316 321 326
309 225 108 85 309 280 144 152 287 243 195 215 208 194 201 207 197 194 203 109 104 110 102 80 79 80 28 311 334 350 44 74 64 280 161 83 71 257 239 220 4 2 344 295 291 43 237 248 243 235 231 229 230 234 241 246 249 251 253 264 280 294 301 302 301 297 298 303 307 308 307 308 309 310 311 312 312 312 315 319 318 317 316 314 313 318 326
284 279 94 100 269 274 215 206 224 224 233 248 234 224 231 229 199 155 99 114 135 134 117 91 80 69 26 24 29 324 317 68 66 281 322 92 137 263 309 47 14 257 258 280 273 220 230 246 240 223 222 224 223 235 252 261 257 254 256 261 271 286 296 296 294 296 302 306 308 307 307 308 310 310 310 310 311 314 321 327 329 327 323 317 316 322 329
249 254 106 134 213 232 224 229 241 258 271 272 265 262 261 225 99 67 27 78 121 121 110 96 77 28 2 25 51 300 297 18 20 283 265 109 113 317 10 27 282 261 208 176 212 212 217 227 226 223 226 229 231 237 247 255 259 262 267 273 278 283 289 291 292 300 306 308 307 305 305 307 308 309 308 308 309 315 324 332 336 334 329 324 323 330 337
255 53 144 198 223 245 245 240 258 286 284 280 290 306 348 86 100 78 328 57 99 114 126 124 111 100 326 328 30 35 339 340 6 304 333 32 68 161 43 291 279 298 350 267 235 240 241 233 225 232 245 244 236 237 242 244 248 256 263 267 273 278 283 288 296 304 308 308 304 301 303 306 306 306 307 308 309 314 324 334 338 338 337 333 328 329 335
234 96 246 225 233 285 303 353 27 335 315 327 344 350 24 76 77 341 335 105 112 93 65 60 72 85 70 7 35 24 292 261 173 79 15 324 239 199 188 254 254 246 35 22 8 344 225 212 187 192 222 230 223 232 249 253 256 267 274 276 280 285 288 291 297 302 304 303 302 301 302 303 302 302 305 308 309 311 320 333 341 344 345 342 337 333 335
230 233 249 237 223 240 318 23 24 302 300 314 316 309 291 133 194 268 269 105 89 66 54 51 85 63 54 51 70 210 254 252 79 82 230 247 247 181 168 247 249 216 185 214 233 206 190 186 175 179 213 240 243 250 262 267 270 280 286 286 288 292 295 296 298 299 299 301 302 301 300 302 303 304 307 310 311 312 319 331 341 347 349 346 346 348 347
184 214 255 256 242 234 241 241 243 251 260 277 288 283 217 178 219 249 33 79 88 98 160 187 116 83 79 193 210 198 130 92 50 322 240 258 272 225 185 209 268 233 199 219 250 242 198 191 196 198 212 237 254 264 268 269 275 289 299 299 299 301 301 299 298 298 298 299 301 302 302 304 307 309 309 310 311 312 313 321 332 345 349 347 352 1 2